Location: Unspecified
(49.8670°N, 0.0000°E)
Time: 06:38:54
(UTC+00:00)

S-56A Canister/Altair - Pass Details

Date: 17 June 2019
Orbit: 632 x 2500 km, 38.9° (Epoch: 17 July)

Event Time Altitude Azimuth Distance (km) Brightness Sun altitude
Rises 20:24:54 0° 255° (WSW) 3,506 11.4 -2.5°
Reaches altitude 10° 20:28:13 10° 241° (WSW) 2,335 10.3 -2.9°
Maximum altitude 20:32:07 22° 192° (SSW) 1,497 8.8 -3.4°
Drops below altitude 10° 20:35:34 10° 141° (SE) 2,024 9.0 -3.8°
Enters shadow 20:36:55 - 131° (SE) 2,450 9.4 -3.9°
Sets 20:38:12 0° 125° (SE) 2,912 - -4.1°
